User: anonymous   Login
Location: Unspecified
(0.0000°N, 0.0000°E)
Time: 18:09:46
(UTC+00:00)
Language:

STARLINK-30608 - Orbit

View from above orbital plane
View from above orbital plane
View from above satellite
View from above satellite

Ground track
Ground track

The orbit is defined by the following mean orbital elements,

1 58091U          26145.31482713 +.00000000 +00000-0 +10213-3 0 00003
2 58091  43.0050   5.2293 0001393 277.2622  82.8071 15.27582472    01
Epoch (UTC): 25 May 2026 07:33:21
Eccentricity: 0.0001393
inclination: 43.0050°
perigee height: 482 km
apogee height: 484 km
right ascension of ascending node: 5.2293°
argument of perigee: 277.2622°
revolutions per day: 15.27582472
mean anomaly at epoch: 82.8071°

The dashed part of the orbit path shows where the satellite is in the earth's shadow,  

DLR